AZU4383 SBEG-SBKP

Flight info

Callsign AZU4383
Flight time N/A
Altitude 35000
Route DUBD1B ETAXA UZ87 PALCA DCT UTLOT UBKU2A
Aircraft A21N/M-SDE2E3FGHIRWXY/LB1

Departure

Time 2026-04-25 21:50
Airport Eduardo Gomes International Airport (SBEG)

Arrival

Time N/A
Airport Viracopos International Airport (SBKP)
Time Latitude Longitude Altitude Speed Heading
2026-04-25 21:34 -3.03262 -60.04446 303 ft 0 kts 348°
2026-04-25 21:42 -3.03277 -60.04445 306 ft 3 kts
2026-04-25 21:42 -3.03296 -60.04445 302 ft 3 kts 11°
2026-04-25 21:42 -3.03314 -60.04448 302 ft 3 kts 11°
2026-04-25 21:42 -3.03332 -60.04452 302 ft 3 kts 35°
2026-04-25 21:43 -3.03340 -60.04460 302 ft 0 kts 71°
2026-04-25 21:46 -3.03336 -60.04446 302 ft 4 kts 78°
2026-04-25 21:46 -3.03341 -60.04404 304 ft 7 kts 119°
2026-04-25 21:46 -3.03377 -60.04380 307 ft 7 kts 159°
2026-04-25 21:46 -3.03430 -60.04361 303 ft 10 kts 160°
2026-04-25 21:47 -3.03497 -60.04323 303 ft 12 kts 141°
2026-04-25 21:47 -3.03560 -60.04251 303 ft 15 kts 122°
2026-04-25 21:47 -3.03601 -60.04147 306 ft 17 kts 105°
2026-04-25 21:47 -3.03634 -60.04027 304 ft 18 kts 105°
2026-04-25 21:48 -3.03667 -60.03911 307 ft 17 kts 106°
2026-04-25 21:48 -3.03705 -60.03806 306 ft 15 kts 125°
2026-04-25 21:48 -3.03764 -60.03770 308 ft 0 kts 174°
2026-04-25 21:49 -3.03769 -60.03770 308 ft 3 kts 174°
2026-04-25 21:49 -3.03808 -60.03773 308 ft 9 kts 194°
2026-04-25 21:49 -3.03859 -60.03825 305 ft 13 kts 261°
2026-04-25 21:49 -3.03860 -60.03986 306 ft 48 kts 270°
2026-04-25 21:50 -3.03859 -60.04544 303 ft 115 kts 270°
2026-04-25 21:50 -3.03860 -60.05566 359 ft 169 kts 269°
2026-04-25 21:50 -3.03857 -60.06755 954 ft 170 kts 269°
2026-04-25 21:50 -3.03864 -60.07542 1379 ft 172 kts 269°
2026-04-25 21:51 -3.03858 -60.09153 2123 ft 180 kts 269°
2026-04-25 21:51 -3.04231 -60.10404 2271 ft 201 kts 229°
2026-04-25 21:51 -3.05471 -60.11105 2403 ft 218 kts 187°
2026-04-25 21:51 -3.06500 -60.11152 2544 ft 230 kts 179°
2026-04-25 21:52 -3.08771 -60.11115 2803 ft 259 kts 180°
2026-04-25 21:52 -3.09983 -60.11147 3103 ft 266 kts 182°
2026-04-25 21:52 -3.11843 -60.11258 3695 ft 271 kts 184°
2026-04-25 21:52 -3.13749 -60.11418 4297 ft 276 kts 185°
2026-04-25 21:53 -3.15666 -60.11606 4945 ft 278 kts 186°
2026-04-25 21:53 -3.17609 -60.11809 5591 ft 281 kts 186°
2026-04-25 21:53 -3.19564 -60.12022 6238 ft 283 kts 186°
2026-04-25 21:53 -3.21519 -60.12123 6726 ft 287 kts 171°
2026-04-25 21:54 -3.23340 -60.11340 7200 ft 289 kts 137°
2026-04-25 21:54 -3.24463 -60.09711 7789 ft 287 kts 106°
2026-04-25 21:54 -3.24874 -60.07757 8430 ft 287 kts 98°
2026-04-25 21:54 -3.25194 -60.05778 9040 ft 290 kts 99°
2026-04-25 21:55 -3.25582 -60.03792 9653 ft 293 kts 101°
2026-04-25 21:55 -3.26039 -60.01781 10133 ft 300 kts 102°
2026-04-25 21:55 -3.26555 -59.99706 10352 ft 316 kts 103°
2026-04-25 21:55 -3.27124 -59.97528 10553 ft 332 kts 104°
2026-04-25 21:56 -3.27726 -59.95283 10749 ft 346 kts 104°
2026-04-25 21:56 -3.28158 -59.93688 10878 ft 355 kts 104°
2026-04-25 21:56 -3.29033 -59.90479 11302 ft 365 kts 104°
2026-04-25 21:56 -3.29707 -59.88018 11731 ft 368 kts 104°
2026-04-25 21:57 -3.30391 -59.85537 12182 ft 371 kts 105°
2026-04-25 21:57 -3.31276 -59.83100 12626 ft 374 kts 115°
2026-04-25 21:57 -3.32627 -59.80870 13078 ft 377 kts 127°
2026-04-25 21:57 -3.34463 -59.78980 13540 ft 381 kts 140°
2026-04-25 21:58 -3.36680 -59.77498 13961 ft 384 kts 149°
2026-04-25 21:58 -3.38997 -59.76207 14353 ft 387 kts 150°
2026-04-25 21:58 -3.41373 -59.74920 14755 ft 389 kts 150°
2026-04-25 21:58 -3.43773 -59.73619 15146 ft 392 kts 150°
2026-04-25 21:59 -3.46181 -59.72306 15530 ft 394 kts 150°
2026-04-25 21:59 -3.48571 -59.70998 15911 ft 397 kts 150°
2026-04-25 21:59 -3.51000 -59.69664 16280 ft 399 kts 150°
2026-04-25 22:00 -3.55897 -59.66972 17006 ft 404 kts 150°
2026-04-25 22:00 -3.58362 -59.65616 17335 ft 406 kts 150°
2026-04-25 22:00 -3.60851 -59.64247 17661 ft 408 kts 149°
2026-04-25 22:00 -3.63348 -59.62872 17966 ft 410 kts 149°
2026-04-25 22:01 -3.65857 -59.61491 18246 ft 412 kts 149°
2026-04-25 22:01 -3.68343 -59.60122 18485 ft 414 kts 149°
2026-04-25 22:01 -3.70871 -59.58731 18736 ft 414 kts 149°
2026-04-25 22:01 -3.72549 -59.57807 18884 ft 415 kts 149°
2026-04-25 22:02 -3.75944 -59.55937 19160 ft 417 kts 149°
2026-04-25 22:02 -3.78496 -59.54531 19355 ft 418 kts 149°
2026-04-25 22:02 -3.81050 -59.53124 19534 ft 420 kts 149°
2026-04-25 22:02 -3.83576 -59.51733 19725 ft 421 kts 149°
2026-04-25 22:03 -3.86180 -59.50298 19886 ft 422 kts 149°
2026-04-25 22:03 -3.88723 -59.48898 20050 ft 423 kts 149°
2026-04-25 22:03 -3.91303 -59.47476 20191 ft 424 kts 149°
2026-04-25 22:03 -3.93896 -59.46048 20340 ft 425 kts 149°
2026-04-25 22:04 -3.96485 -59.44621 20497 ft 426 kts 149°
2026-04-25 22:04 -3.99081 -59.43191 20660 ft 427 kts 149°
2026-04-25 22:04 -4.01686 -59.41755 20817 ft 428 kts 149°
2026-04-25 22:04 -4.04302 -59.40313 20980 ft 429 kts 149°
2026-04-25 22:05 -4.06917 -59.38872 21137 ft 430 kts 149°
2026-04-25 22:05 -4.09548 -59.37422 21316 ft 431 kts 149°
2026-04-25 22:05 -4.12180 -59.35971 21482 ft 432 kts 149°
2026-04-25 22:05 -4.14813 -59.34520 21654 ft 433 kts 149°
2026-04-25 22:06 -4.17460 -59.33061 21820 ft 434 kts 149°
2026-04-25 22:06 -4.20116 -59.31612 21998 ft 435 kts 150°
2026-04-25 22:06 -4.22786 -59.30169 22166 ft 437 kts 150°
2026-04-25 22:06 -4.25436 -59.28742 22343 ft 438 kts 150°
2026-04-25 22:07 -4.28129 -59.27294 22519 ft 439 kts 150°
2026-04-25 22:07 -4.29911 -59.26336 22650 ft 439 kts 150°
2026-04-25 22:07 -4.33535 -59.24386 22885 ft 441 kts 150°
2026-04-25 22:07 -4.36240 -59.22929 23058 ft 442 kts 150°
2026-04-25 22:08 -4.38956 -59.21465 23232 ft 443 kts 150°
2026-04-25 22:08 -4.41646 -59.20015 23413 ft 444 kts 150°
2026-04-25 22:08 -4.44361 -59.18550 23566 ft 446 kts 150°
2026-04-25 22:08 -4.47063 -59.17092 23714 ft 446 kts 150°
2026-04-25 22:09 -4.49827 -59.15601 23866 ft 447 kts 150°
2026-04-25 22:09 -4.52585 -59.14113 24024 ft 448 kts 150°
2026-04-25 22:09 -4.55343 -59.12624 24178 ft 449 kts 150°
2026-04-25 22:09 -4.58102 -59.11136 24341 ft 450 kts 150°
2026-04-25 22:10 -4.60861 -59.09647 24483 ft 451 kts 150°
2026-04-25 22:10 -4.63603 -59.08167 24669 ft 452 kts 150°
2026-04-25 22:10 -4.66380 -59.06668 24840 ft 453 kts 150°
2026-04-25 22:10 -4.69153 -59.05171 25038 ft 454 kts 150°
2026-04-25 22:11 -4.71950 -59.03661 25246 ft 455 kts 150°
2026-04-25 22:11 -4.74742 -59.02154 25437 ft 456 kts 150°
2026-04-25 22:11 -4.77542 -59.00642 25649 ft 458 kts 150°
2026-04-25 22:11 -4.80346 -58.99127 25862 ft 459 kts 150°
2026-04-25 22:12 -4.83168 -58.97603 26073 ft 460 kts 150°
2026-04-25 22:12 -4.85944 -58.96104 26292 ft 461 kts 150°
2026-04-25 22:12 -4.88785 -58.94570 26498 ft 462 kts 150°
2026-04-25 22:12 -4.90699 -58.93535 26635 ft 463 kts 150°
2026-04-25 22:13 -4.94467 -58.91500 26869 ft 466 kts 150°
2026-04-25 22:13 -4.97322 -58.89957 27069 ft 467 kts 150°
2026-04-25 22:13 -5.00186 -58.88409 27271 ft 468 kts 149°
2026-04-25 22:13 -5.03058 -58.86857 27469 ft 469 kts 149°
2026-04-25 22:14 -5.05939 -58.85300 27663 ft 470 kts 149°
2026-04-25 22:14 -5.08811 -58.83748 27921 ft 469 kts 149°
2026-04-25 22:14 -5.11683 -58.82196 28199 ft 468 kts 149°
2026-04-25 22:14 -5.14551 -58.80645 28471 ft 467 kts 149°
2026-04-25 22:15 -5.17422 -58.79094 28741 ft 466 kts 149°
2026-04-25 22:15 -5.20280 -58.77548 29015 ft 466 kts 149°
2026-04-25 22:15 -5.23100 -58.76023 29241 ft 466 kts 150°
2026-04-25 22:16 -5.28799 -58.72940 29724 ft 465 kts 150°
2026-04-25 22:16 -5.31642 -58.71402 29985 ft 464 kts 150°
2026-04-25 22:16 -5.34481 -58.69866 30205 ft 463 kts 149°
2026-04-25 22:16 -5.37320 -58.68330 30405 ft 463 kts 149°
2026-04-25 22:17 -5.40154 -58.66796 30607 ft 462 kts 149°
2026-04-25 22:17 -5.42986 -58.65264 30809 ft 461 kts 149°
2026-04-25 22:17 -5.45804 -58.63739 31015 ft 461 kts 149°
2026-04-25 22:17 -5.48631 -58.62209 31210 ft 460 kts 149°
2026-04-25 22:18 -5.51442 -58.60688 31420 ft 460 kts 149°
2026-04-25 22:18 -5.54269 -58.59158 31606 ft 459 kts 149°
2026-04-25 22:18 -5.57083 -58.57634 31770 ft 460 kts 149°
2026-04-25 22:18 -5.59901 -58.56108 31949 ft 459 kts 149°
2026-04-25 22:19 -5.62672 -58.54607 32147 ft 459 kts 149°
2026-04-25 22:19 -5.65516 -58.53067 32337 ft 458 kts 149°
2026-04-25 22:19 -5.68280 -58.51570 32520 ft 457 kts 149°
2026-04-25 22:19 -5.71083 -58.50051 32685 ft 457 kts 149°
2026-04-25 22:20 -5.73876 -58.48538 32857 ft 457 kts 149°
2026-04-25 22:20 -5.76673 -58.47021 33022 ft 456 kts 150°
2026-04-25 22:20 -5.79473 -58.45504 33190 ft 455 kts 150°
2026-04-25 22:20 -5.82256 -58.43994 33340 ft 455 kts 149°
2026-04-25 22:21 -5.85047 -58.42481 33502 ft 455 kts 149°
2026-04-25 22:21 -5.87837 -58.40967 33629 ft 455 kts 149°
2026-04-25 22:21 -5.90619 -58.39458 33791 ft 454 kts 149°
2026-04-25 22:21 -5.93364 -58.37969 33940 ft 454 kts 149°
2026-04-25 22:22 -5.96148 -58.36459 34062 ft 453 kts 149°
2026-04-25 22:22 -5.98911 -58.34960 34188 ft 453 kts 149°
2026-04-25 22:22 -6.01698 -58.33449 34305 ft 453 kts 149°
2026-04-25 22:23 -6.07258 -58.30431 34475 ft 454 kts 149°
2026-04-25 22:23 -6.12825 -58.27410 34637 ft 455 kts 149°
2026-04-25 22:24 -6.18409 -58.24378 34723 ft 458 kts 149°
2026-04-25 22:24 -6.24019 -58.21332 34880 ft 459 kts 149°
2026-04-25 22:25 -6.29640 -58.18279 34898 ft 459 kts 149°
2026-04-25 22:25 -6.35224 -58.15246 34900 ft 458 kts 149°
2026-04-25 22:26 -6.40834 -58.12199 34897 ft 458 kts 149°
2026-04-25 22:26 -6.46430 -58.09157 34908 ft 457 kts 149°
2026-04-25 22:27 -6.52025 -58.06115 34906 ft 456 kts 149°
2026-04-25 22:27 -6.57609 -58.03079 34903 ft 456 kts 149°
2026-04-25 22:28 -6.63188 -58.00044 34902 ft 456 kts 149°
2026-04-25 22:28 -6.68731 -57.97028 34902 ft 456 kts 149°
2026-04-25 22:29 -6.74304 -57.93995 34904 ft 455 kts 149°
2026-04-25 22:29 -6.79887 -57.90956 34903 ft 455 kts 149°
2026-04-25 22:30 -6.88248 -57.86403 34909 ft 455 kts 149°
2026-04-25 22:30 -6.92875 -57.83882 34908 ft 454 kts 149°
2026-04-25 22:31 -6.99347 -57.80356 34908 ft 454 kts 149°
2026-04-25 22:31 -7.04918 -57.77320 34907 ft 454 kts 149°
2026-04-25 22:32 -7.10472 -57.74291 34905 ft 454 kts 149°
2026-04-25 22:32 -7.15994 -57.71280 34903 ft 454 kts 149°
2026-04-25 22:33 -7.21555 -57.68247 34910 ft 454 kts 149°
2026-04-25 22:33 -7.27096 -57.65223 34907 ft 454 kts 149°